Tracking 19246 objects as of 20-Aug-2018
HD Live streaming from Space Station
objects crossing your sky now

COSMOS 1420

Track COSMOS 1420 now!
10-day predictions
COSMOS 1420 is classified as:


NORAD ID: 13648
Int'l Code: 1982-109A
Perigee: 772.5 km
Apogee: 799.8 km
Inclination: 74.0 °
Period: 100.4 minutes
Semi major axis: 7157 km
RCS: 2.7828 m2 (large)
Launch date: November 11, 1982
Source: Commonwealth of Independent States (former USSR) (CIS)
Launch site: PLESETSK MISSILE AND SPACE COMPLEX (PKMTR)
aabbcc
Your satellite tracking list
Your tracking list is empty




NASA's NSSDC Master Catalog

Two Line Element Set (TLE):
1 13648U 82109A   18231.45987645 +.00000004 +00000-0 +10963-4 0  9992
2 13648 073.9946 027.3948 0019067 079.4562 280.8736 14.33813490869789
Source of the keplerian elements: AFSPC